Location: Maccacari
(45.1333°N, 11.1333°E)
Time: 23:19:13
(UTC+00:00)

USA 116 - Pass Details

Date: 18 September 2020
Orbit: 405 x 834 km, 97.9° (Epoch: 18 November)

Event Time Altitude Azimuth Distance (km) Brightness Sun altitude
Rises 18:17:56 0° 9° (N) 2,432 7.1 -10.9°
Reaches altitude 10° 18:19:53 10° 7° (N) 1,597 6.2 -11.3°
Maximum altitude 18:23:14 64° 286° (WNW) 544 4.0 -11.8°
Drops below altitude 10° 18:26:58 10° 204° (SSW) 1,765 6.4 -12.5°
Sets 18:29:12 0° 202° (SSW) 2,720 7.3 -12.9°
